Вернуться в каталог

COSMOS 1481 DEB

LostHEO
NORAD 20412·DEBRIS·🇷🇺 Russia

Запущен Jul 8, 1983 с Plesetsk Cosmodrome

Loading…

Ближайшие Пролёты (ближайшие 24 часа)

TLE

УстаревшееSource: Space-Track

Эпоха: Jul 1, 2021, 02:30 UTC

1 20412U 83070F   21182.10418991 -.00000439  00000-0  00000+0 0  9990
2 20412  72.4428  11.0296 5757339 296.9772  16.1734  2.04358807236165

Отслеживайте COSMOS 1481 DEB в реальном времени с AllMySat

Download on the App Store